timestamp,wind_dir_avg,wind_spd_max_dir,wind_spd_avg,wind_spd_gust,battery_voltage,lat,long
2017-09-08 00:00:00+00:00,224.0,226.0,8.54,10.32,12.6,47.59359,-54.27349
2017-09-08 00:10:00+00:00,238.0,235.0,7.48,8.67,12.6,47.59359,-54.27349
2017-09-08 00:20:00+00:00,239.0,240.0,9.35,10.62,12.7,47.59359,-54.27349
2017-09-08 00:30:00+00:00,239.0,244.0,9.41,10.5,12.7,47.59359,-54.27349
2017-09-08 00:40:00+00:00,230.0,233.0,8.98,10.55,12.7,47.59359,-54.27349
2017-09-08 00:50:00+00:00,227.0,231.0,10.84,12.1,12.7,47.59359,-54.27349
2017-09-08 01:00:00+00:00,226.0,225.0,10.52,12.0,12.6,47.59359,-54.27349
2017-09-08 01:10:00+00:00,226.0,226.0,12.28,14.08,12.6,47.59359,-54.27349
2017-09-08 01:20:00+00:00,228.0,229.0,10.99,12.76,12.6,47.59359,-54.27349
2017-09-08 01:30:00+00:00,228.0,230.0,11.54,13.03,12.6,47.59359,-54.27349
2017-09-08 01:40:00+00:00,233.0,240.0,11.41,13.27,12.7,47.59359,-54.27349
2017-09-08 01:50:00+00:00,232.0,233.0,11.73,13.29,12.7,47.59359,-54.27349
2017-09-08 02:00:00+00:00,231.0,234.0,11.7,12.95,12.6,47.59359,-54.27349
2017-09-08 02:10:00+00:00,237.0,235.0,13.47,16.57,12.6,47.59359,-54.27349
2017-09-08 02:20:00+00:00,234.0,236.0,12.88,14.57,12.6,47.59359,-54.27349
2017-09-08 02:30:00+00:00,233.0,232.0,12.23,14.24,12.6,47.59359,-54.27349
2017-09-08 02:40:00+00:00,233.0,235.0,11.85,14.36,12.6,47.59359,-54.27349
2017-09-08 02:50:00+00:00,234.0,235.0,12.76,14.56,12.6,47.59359,-54.27349
2017-09-08 03:00:00+00:00,235.0,235.0,13.75,16.0,12.6,47.59359,-54.27349
2017-09-08 03:10:00+00:00,242.0,239.0,14.89,17.71,12.6,47.59359,-54.27349
2017-09-08 03:20:00+00:00,239.0,237.0,14.06,16.1,12.6,47.59359,-54.27349
2017-09-08 03:30:00+00:00,241.0,236.0,13.9,16.31,12.6,47.59359,-54.27349
2017-09-08 03:40:00+00:00,244.0,250.0,11.94,14.89,12.6,47.59359,-54.27349
2017-09-08 03:50:00+00:00,243.0,250.0,12.2,14.52,12.6,47.59359,-54.27349
2017-09-08 04:00:00+00:00,241.0,240.0,13.64,15.4,12.6,47.59359,-54.27349
2017-09-08 04:10:00+00:00,239.0,243.0,12.04,14.3,12.6,47.59359,-54.27349
2017-09-08 04:20:00+00:00,242.0,243.0,13.0,14.86,12.6,47.59359,-54.27349
2017-09-08 04:30:00+00:00,244.0,249.0,11.64,13.71,12.6,47.59359,-54.27349
2017-09-08 04:40:00+00:00,244.0,245.0,12.08,14.82,12.6,47.59359,-54.27349
2017-09-08 04:50:00+00:00,242.0,240.0,11.57,13.03,12.6,47.59359,-54.27349
2017-09-08 05:00:00+00:00,240.0,251.0,11.97,15.83,12.6,47.59359,-54.27349
2017-09-08 05:10:00+00:00,241.0,237.0,12.81,15.17,12.6,47.59359,-54.27349
2017-09-08 05:20:00+00:00,238.0,238.0,11.68,14.46,12.6,47.59359,-54.27349
2017-09-08 05:30:00+00:00,243.0,236.0,10.76,12.81,12.6,47.59359,-54.27349
2017-09-08 05:40:00+00:00,240.0,240.0,11.65,14.02,12.6,47.59359,-54.27349
2017-09-08 05:50:00+00:00,245.0,227.0,10.03,12.41,12.6,47.59359,-54.27349
2017-09-08 06:00:00+00:00,251.0,255.0,11.71,13.13,12.6,47.59359,-54.27349
2017-09-08 06:10:00+00:00,241.0,245.0,11.57,13.49,12.6,47.59359,-54.27349
2017-09-08 06:20:00+00:00,237.0,233.0,11.35,12.94,12.6,47.59359,-54.27349
2017-09-08 06:30:00+00:00,238.0,242.0,12.24,14.07,12.6,47.59359,-54.27349
2017-09-08 06:40:00+00:00,234.0,235.0,12.68,14.22,12.6,47.59359,-54.27349
2017-09-08 06:50:00+00:00,240.0,241.0,10.98,13.18,12.6,47.59359,-54.27349
2017-09-08 07:00:00+00:00,239.0,244.0,11.07,13.55,12.6,47.59359,-54.27349
2017-09-08 07:10:00+00:00,240.0,247.0,12.49,16.02,12.5,47.59359,-54.27349
2017-09-08 07:20:00+00:00,235.0,235.0,12.92,14.77,12.6,47.59359,-54.27349
2017-09-08 07:30:00+00:00,230.0,229.0,12.12,13.54,12.6,47.59359,-54.27349
2017-09-08 07:40:00+00:00,231.0,230.0,11.77,13.5,12.6,47.59359,-54.27349
2017-09-08 07:50:00+00:00,230.0,235.0,12.0,13.76,12.6,47.59359,-54.27349
2017-09-08 08:00:00+00:00,227.0,227.0,12.55,14.16,12.6,47.59359,-54.27349
2017-09-08 08:10:00+00:00,228.0,231.0,12.18,14.57,12.5,47.59359,-54.27349
2017-09-08 08:20:00+00:00,228.0,227.0,12.99,15.4,12.6,47.59359,-54.27349
2017-09-08 08:30:00+00:00,227.0,230.0,12.81,15.35,12.6,47.59359,-54.27349
2017-09-08 08:40:00+00:00,227.0,229.0,12.73,15.27,12.6,47.59359,-54.27349
2017-09-08 08:50:00+00:00,228.0,230.0,11.7,13.61,12.6,47.59359,-54.27349
2017-09-08 09:00:00+00:00,226.0,223.0,11.43,13.02,12.6,47.59359,-54.27349
2017-09-08 09:10:00+00:00,222.0,219.0,11.52,13.69,12.5,47.59359,-54.27349
2017-09-08 09:20:00+00:00,220.0,221.0,10.49,11.75,12.6,47.59359,-54.27349
2017-09-08 09:30:00+00:00,220.0,222.0,10.73,12.15,12.6,47.59359,-54.27349
2017-09-08 09:40:00+00:00,222.0,221.0,11.2,13.1,12.6,47.59359,-54.27349
2017-09-08 09:50:00+00:00,221.0,223.0,9.95,10.78,12.6,47.59359,-54.27349
2017-09-08 10:00:00+00:00,219.0,217.0,9.07,10.37,12.6,47.59359,-54.27349
2017-09-08 10:10:00+00:00,218.0,220.0,8.97,10.21,12.6,47.59359,-54.27349
2017-09-08 10:20:00+00:00,221.0,224.0,9.75,12.54,12.6,47.59359,-54.27349
2017-09-08 10:30:00+00:00,227.0,222.0,8.84,10.45,12.6,47.59359,-54.27349
2017-09-08 10:40:00+00:00,236.0,238.0,6.47,7.92,12.6,47.59359,-54.27349
2017-09-08 10:50:00+00:00,244.0,247.0,9.18,10.7,12.6,47.59359,-54.27349
2017-09-08 11:00:00+00:00,238.0,233.0,9.47,11.99,12.6,47.59359,-54.27349
2017-09-08 11:10:00+00:00,234.0,235.0,9.36,11.21,12.6,47.59359,-54.27349
2017-09-08 11:20:00+00:00,245.0,247.0,10.22,12.59,12.6,47.59359,-54.27349
2017-09-08 11:30:00+00:00,232.0,228.0,11.02,12.48,12.7,47.59359,-54.27349
2017-09-08 11:40:00+00:00,229.0,230.0,11.8,13.34,12.8,47.59359,-54.27349
2017-09-08 11:50:00+00:00,229.0,225.0,11.84,14.08,12.9,47.59359,-54.27349
2017-09-08 12:00:00+00:00,232.0,229.0,11.38,13.13,12.9,47.59359,-54.27349
2017-09-08 12:10:00+00:00,233.0,233.0,10.83,12.73,12.8,47.59359,-54.27349
2017-09-08 12:20:00+00:00,232.0,233.0,12.45,15.18,13.0,47.59359,-54.27349
2017-09-08 12:30:00+00:00,228.0,230.0,14.57,17.52,13.0,47.59359,-54.27349
2017-09-08 12:40:00+00:00,229.0,228.0,14.94,16.97,13.0,47.59359,-54.27349
2017-09-08 12:50:00+00:00,229.0,236.0,13.7,17.3,13.1,47.59359,-54.27349
2017-09-08 13:00:00+00:00,229.0,227.0,12.2,14.68,13.1,47.59359,-54.27349
2017-09-08 13:10:00+00:00,228.0,231.0,12.3,14.92,13.1,47.59359,-54.27349
2017-09-08 13:20:00+00:00,230.0,233.0,13.32,15.66,13.2,47.59359,-54.27349
2017-09-08 13:30:00+00:00,230.0,233.0,11.33,14.36,13.2,47.59359,-54.27349
2017-09-08 13:40:00+00:00,232.0,231.0,10.88,12.37,13.3,47.59359,-54.27349
2017-09-08 13:50:00+00:00,234.0,245.0,10.94,13.55,13.4,47.59359,-54.27349
2017-09-08 14:00:00+00:00,233.0,234.0,11.06,12.78,13.2,47.59359,-54.27349
2017-09-08 14:10:00+00:00,230.0,228.0,11.1,13.0,13.1,47.59359,-54.27349
2017-09-08 14:20:00+00:00,233.0,232.0,10.49,12.82,13.2,47.59359,-54.27349
2017-09-08 14:30:00+00:00,237.0,246.0,11.98,17.87,13.3,47.59359,-54.27349
2017-09-08 14:40:00+00:00,233.0,228.0,12.1,13.66,13.3,47.59359,-54.27349
2017-09-08 14:50:00+00:00,228.0,229.0,13.01,15.17,13.4,47.59359,-54.27349
2017-09-08 15:00:00+00:00,226.0,221.0,13.83,16.37,13.4,47.59359,-54.27349
2017-09-08 15:10:00+00:00,227.0,225.0,12.46,15.14,13.3,47.59359,-54.27349
2017-09-08 15:20:00+00:00,226.0,223.0,13.35,15.99,13.3,47.59359,-54.27349
2017-09-08 15:30:00+00:00,229.0,227.0,11.98,13.98,13.3,47.59359,-54.27349
2017-09-08 15:40:00+00:00,225.0,218.0,13.13,14.9,13.4,47.59359,-54.27349
2017-09-08 15:50:00+00:00,224.0,231.0,13.08,15.46,13.5,47.59359,-54.27349
2017-09-08 16:00:00+00:00,226.0,229.0,14.04,16.12,13.6,47.59359,-54.27349
2017-09-08 16:10:00+00:00,229.0,223.0,12.91,14.92,13.4,47.59359,-54.27349
2017-09-08 16:20:00+00:00,227.0,229.0,13.2,15.6,13.7,47.59359,-54.27349
2017-09-08 16:30:00+00:00,227.0,230.0,11.96,14.32,13.7,47.59359,-54.27349
2017-09-08 16:40:00+00:00,224.0,223.0,11.61,13.49,13.7,47.59359,-54.27349
2017-09-08 16:50:00+00:00,227.0,225.0,13.49,16.3,13.7,47.59359,-54.27349
2017-09-08 17:00:00+00:00,228.0,231.0,11.52,13.56,13.7,47.59359,-54.27349
2017-09-08 17:10:00+00:00,224.0,227.0,11.97,13.77,13.7,47.59359,-54.27349
2017-09-08 17:20:00+00:00,224.0,231.0,11.3,12.58,13.8,47.59359,-54.27349
2017-09-08 17:30:00+00:00,221.0,225.0,10.76,13.36,13.9,47.59359,-54.27349
2017-09-08 17:40:00+00:00,218.0,219.0,9.79,11.17,14.1,47.59359,-54.27349
2017-09-08 17:50:00+00:00,219.0,218.0,11.13,12.33,14.2,47.59359,-54.27349
2017-09-08 18:00:00+00:00,220.0,221.0,12.09,13.05,13.8,47.59359,-54.27349
2017-09-08 18:10:00+00:00,221.0,226.0,11.17,12.84,13.6,47.59359,-54.27349
2017-09-08 18:20:00+00:00,222.0,221.0,10.72,11.75,13.7,47.59359,-54.27349
2017-09-08 18:30:00+00:00,223.0,227.0,10.72,11.71,13.7,47.59359,-54.27349
2017-09-08 18:40:00+00:00,224.0,225.0,9.2,10.25,14.0,47.59359,-54.27349
2017-09-08 18:50:00+00:00,228.0,229.0,8.55,9.46,14.0,47.59359,-54.27349
2017-09-08 19:00:00+00:00,231.0,231.0,7.92,9.17,13.9,47.59359,-54.27349
2017-09-08 19:10:00+00:00,218.0,219.0,8.33,8.95,13.6,47.59359,-54.27349
2017-09-08 19:20:00+00:00,219.0,219.0,9.07,10.01,13.6,47.59359,-54.27349
2017-09-08 19:30:00+00:00,220.0,218.0,9.32,10.72,13.6,47.59359,-54.27349
2017-09-08 19:40:00+00:00,220.0,218.0,9.39,11.05,13.5,47.59359,-54.27349
2017-09-08 19:50:00+00:00,218.0,219.0,8.57,9.45,13.6,47.59359,-54.27349
2017-09-08 20:00:00+00:00,221.0,224.0,8.97,10.28,13.6,47.59359,-54.27349
2017-09-08 20:10:00+00:00,220.0,222.0,9.43,10.64,13.4,47.59359,-54.27349
2017-09-08 20:20:00+00:00,226.0,222.0,9.91,10.72,13.4,47.59359,-54.27349
2017-09-08 20:30:00+00:00,220.0,220.0,9.47,10.67,13.4,47.59359,-54.27349
2017-09-08 20:40:00+00:00,223.0,224.0,8.19,9.2,13.4,47.59359,-54.27349
2017-09-08 20:50:00+00:00,224.0,217.0,8.53,10.48,13.4,47.59359,-54.27349
2017-09-08 21:00:00+00:00,224.0,213.0,8.01,9.14,13.3,47.59359,-54.27349
2017-09-08 21:10:00+00:00,226.0,229.0,8.0,8.78,13.0,47.59359,-54.27349
2017-09-08 21:20:00+00:00,229.0,236.0,7.89,9.35,13.0,47.59359,-54.27349
2017-09-08 21:30:00+00:00,226.0,225.0,6.96,7.47,13.0,47.59359,-54.27349
2017-09-08 21:40:00+00:00,228.0,237.0,6.54,7.41,13.0,47.59359,-54.27349
2017-09-08 21:50:00+00:00,230.0,235.0,7.29,8.55,13.0,47.59359,-54.27349
2017-09-08 22:00:00+00:00,220.0,211.0,7.53,9.36,12.8,47.59359,-54.27349
2017-09-08 22:10:00+00:00,222.0,226.0,7.05,7.96,12.7,47.59359,-54.27349
2017-09-08 22:20:00+00:00,219.0,219.0,6.78,7.35,12.7,47.59359,-54.27349
2017-09-08 22:30:00+00:00,217.0,216.0,7.46,7.93,12.7,47.59359,-54.27349
2017-09-08 22:40:00+00:00,218.0,219.0,7.61,8.17,12.7,47.59359,-54.27349
2017-09-08 22:50:00+00:00,220.0,226.0,8.42,9.43,12.7,47.59359,-54.27349
2017-09-08 23:00:00+00:00,219.0,220.0,9.36,10.31,12.7,47.59359,-54.27349
2017-09-08 23:10:00+00:00,224.0,228.0,8.52,9.67,12.6,47.59359,-54.27349
2017-09-08 23:20:00+00:00,225.0,228.0,7.8,8.47,12.7,47.59359,-54.27349
2017-09-08 23:30:00+00:00,223.0,224.0,7.88,8.66,12.7,47.59359,-54.27349
2017-09-08 23:40:00+00:00,221.0,223.0,7.43,8.35,12.7,47.59359,-54.27349
2017-09-08 23:50:00+00:00,227.0,231.0,5.68,6.5,12.7,47.59359,-54.27349
